Content
SEND FEEDBACK

Daily
Averages
Monthly
Summary
United States of America

EARTH CITY, MISSOURI


Home > North America > United States > Missouri
Elevation: 476 feet     Latitude: 38 46N     Longitude: 090 30W

WEATHER
 
SELECT A DAY
Number of Records: 205,815;   Date Range: 1/1/95 - 9/29/14
 
SHARE

PRINT THIS DATA

[ ← Previous Day ]
WEATHER ALMANAC - JANUARY 7, 2013
[ Next Day → ]
[ °C ]   °F
Weather ElementAverageHighLow
Temperature35 °F45 °F (1:51 pm)24.1 °F (1:51 am)
Dewpoint22.5 °F27 °F (4:51 pm)17.1 °F (4:51 am)
Humidity61.1 %77 % (1:51 am)44 % (2:51 pm)
Barometer30.32 in30.44 in (2:51 am)30.18 in (11:51 pm)
Wind Speed7.7 mph13.8 mph (9:51 am)
Wind Gust19.6 mph (9:51 am)
Weather ElementAverage
Visibility9 mi
Wind DirectionSSE (144.8 °)

Weather ElementTotal
Precipitation---
Heating Degree Days30.5 (Base 65)
Averaged from 23 records on January 7, 2013
WEATHER CONDITIONS BREAKOUT
WIND DIRECTION BREAKOUT
WEATHER BY HOUR - JANUARY 7, 2013
[ °C ]   °F
Local TimeTemperatureDewpointHumidityBarometerVisibilityWind DirectionWind SpeedGust SpeedPrecipitationEventsConditions
1:51 AM24.1 °F18.0 °F77 %30.43 in9.0 miCalmClear
2:51 AM25.0 °F18.0 °F75 %30.44 in9.0 miCalmClear
3:51 AM28.0 °F19.0 °F69 %30.43 in9.0 miSouth (180°)6.9 mphClear
4:51 AM24.1 °F17.1 °F75 %30.42 in9.0 miCalmClear
5:51 AM27.0 °F19.0 °F72 %30.41 in8.0 miSSE (160°)6.9 mphClear
6:51 AM28.0 °F19.0 °F69 %30.41 in9.0 miSSE (150°)5.8 mphClear
7:51 AM28.9 °F19.9 °F69 %30.42 in8.0 miSouth (170°)5.8 mphClear
8:51 AM30.9 °F21.0 °F67 %30.43 in7.0 miSouth (180°)10.4 mphClear
9:51 AM35.1 °F23.0 °F61 %30.42 in7.0 miSSE (160°)13.8 mph19.6 mphPartly Cloudy
10:51 AM37.9 °F21.9 °F53 %30.40 in9.0 miSouth (170°)13.8 mphPartly Cloudy
11:51 AM41.0 °F23.0 °F49 %30.35 in9.0 miSouth (180°)10.4 mphPartly Cloudy
12:51 PM42.1 °F24.1 °F49 %30.30 in9.0 miSSE (150°)12.7 mphPartly Cloudy
1:51 PM45.0 °F25.0 °F46 %30.27 in10.0 miSouth (170°)8.1 mphScattered Clouds
2:51 PM45.0 °F24.1 °F44 %30.27 in10.0 miSSE (160°)10.4 mphScattered Clouds
3:51 PM44.1 °F26.1 °F49 %30.26 in10.0 miSE (140°)6.9 mphMostly Cloudy
4:51 PM39.0 °F27.0 °F62 %30.25 in9.0 miSE (130°)10.4 mphMostly Cloudy
5:51 PM39.0 °F27.0 °F62 %30.24 in8.0 miSE (140°)9.2 mphMostly Cloudy
6:51 PM37.9 °F26.1 °F62 %30.22 in9.0 miSSE (150°)9.2 mphScattered Clouds
7:51 PM39.0 °F25.0 °F57 %30.21 in9.0 miSouth (170°)9.2 mphScattered Clouds
8:51 PM37.9 °F24.1 °F57 %30.21 in10.0 miSouth (180°)8.1 mphScattered Clouds
9:51 PM36.0 °F24.1 °F62 %30.22 in10.0 miSouth (190°)3.5 mphScattered Clouds
10:51 PM36.0 °F23.0 °F59 %30.19 in9.0 miSouth (190°)6.9 mphMostly Cloudy
11:51 PM35.1 °F23.0 °F61 %30.18 in10.0 miSSW (210°)9.2 mphMostly Cloudy
Hourly data recorded from KSTL, located miles away from Earth City, Missouri







STORIES FROM OUR PARTNERS